Tracking 30990 objects as of 9-Jul-2025
HD Live streaming from Space Station
objects crossing your sky now

STARLINK-31688

Track STARLINK-31688 now!
10-day predictions
STARLINK-31688 is classified as:


NORAD ID: 59386
Int'l Code: 2024-062N
Perigee: 481.4 km
Apogee: 483.3 km
Inclination: 53.2 °
Period: 94.1 minutes
Semi major axis: 6853 km
RCS: Unknown
Launch date: April 2, 2024
Source: United States (US)
Launch site: AIR FORCE WESTERN TEST RANGE (AFWTR)
Your satellite tracking list
Your tracking list is empty




NASA's NSSDC Master Catalog

Two Line Element Set (TLE):
1 59386U 24062N   25189.60633291  .00000146  00000-0  17052-4 0  9990
2 59386  53.1612 312.0750 0001398 104.3743 255.7413 15.30187858 72284
Source of the keplerian elements: AFSPC